Location: Newark
(30.1000°N, 109.4667°E)
Time: 20:24:09
(UTC+00:00)

A-11 Canister half - Pass Details

Date: 26 February 2020
Orbit: 1516 x 1683 km, 47.2° (Epoch: 09 April)

Event Time Altitude Azimuth Distance (km) Brightness Sun altitude
Rises 12:34:53 0° 309° (NW) 4,841 12.5 -25.9°
Reaches altitude 10° 12:38:18 10° 316° (NW) 3,830 11.7 -26.7°
Maximum altitude 12:47:26 43° 26° (NNE) 2,082 9.5 -28.6°
Enters shadow 12:49:02 40° 49° (NE) 2,149 9.4 -29.0°
